Temp
14 13 17 15 18 20 21 22 22 23 24 24 24 25 26 27 28 27 25 32 32 32 31 31 31 30 29 28 28 28 26 29 32 32 33 33 32 32 31 29 30 30 27 26 24
14 14 17 15 18 20 21 22 22 23 24 24 24 25 26 27 26 23 33 32 32 31 31 31 29 29 27 27 27 26 26 30 32 33 33 34 32 31 30 30 28 27 26 26 24
13 15 17 15 19 20 21 21 22 23 24 24 24 26 26 26 24 31 34 33 31 31 30 30 29 28 26 27 27 26 27 30 32 33 35 33 32 31 29 28 28 27 26 26 25
11 15 17 18 20 21 21 22 22 23 24 24 24 26 26 25 30 33 33 32 31 31 30 30 28 26 26 27 27 27 29 30 32 32 34 35 33 31 31 30 29 28 27 25 24
11 14 16 19 20 21 22 22 22 23 24 24 24 26 26 25 27 33 32 32 31 31 30 29 29 26 27 27 28 27 28 29 31 32 34 34 32 31 30 30 29 29 28 26 25
11 14 17 19 20 22 22 22 23 24 24 24 24 25 24 27 32 33 32 32 31 30 30 30 28 28 26 27 27 27 28 29 30 31 34 33 32 31 30 30 29 28 27 27 27
11 14 16 19 21 22 23 23 23 24 24 24 24 24 23 27 33 33 32 32 32 31 31 31 29 29 28 28 28 27 27 29 30 32 32 31 31 30 30 30 29 28 28 28 27
12 14 16 19 21 23 23 23 24 24 24 24 24 23 24 31 31 32 32 32 33 32 31 31 30 28 28 28 28 28 26 26 31 33 31 31 29 30 29 29 28 29 28 28 28
11 14 18 19 21 23 23 24 25 25 25 24 24 24 26 31 30 34 32 32 33 32 30 30 30 28 28 27 27 26 27 27 30 32 32 32 29 30 29 29 29 29 28 29 28
11 13 18 19 21 23 23 25 25 24 24 23 23 24 28 32 33 34 33 32 31 30 29 28 25 26 26 26 27 28 27 29 30 32 32 31 30 29 29 29 29 28 28 27 28
10 12 18 19 21 22 24 24 23 24 24 26 27 28 30 33 34 33 33 31 30 27 27 26 26 26 29 28 31 30 29 29 30 32 32 31 31 30 29 29 29 27 27 27 27
10 12 19 19 21 22 19 21 25 26 25 25 27 27 30 31 31 33 33 31 30 27 24 27 28 28 31 30 30 29 29 29 30 32 32 30 31 31 29 30 30 30 28 29 27
9 12 19 20 21 21 19 24 26 25 24 27 27 28 28 30 30 32 31 29 29 27 26 28 31 30 30 30 30 30 30 30 30 33 31 31 30 31 31 30 30 30 30 30 29
9 12 19 20 19 18 20 25 25 24 24 28 29 30 31 28 31 33 31 30 27 29 27 28 30 31 31 31 31 29 32 33 33 30 29 31 29 30 30 29 31 31 30 30 29
9 12 18 20 17 17 24 25 25 25 27 31 31 34 32 30 33 32 31 31 28 29 29 31 31 32 32 34 33 32 35 33 33 29 29 30 29 29 30 31 30 30 31 31 31
9 12 17 17 17 25 25 26 26 24 27 32 31 32 32 32 34 32 32 33 32 30 30 31 32 32 32 35 34 36 34 30 27 27 28 29 29 29 29 30 31 31 31 32 32
10 14 15 16 20 24 24 23 25 24 29 31 32 30 30 32 33 33 31 32 31 31 31 31 32 32 33 34 34 33 29 28 30 28 28 27 29 30 32 30 32 31 31 32 32
12 16 18 22 24 24 24 25 26 28 27 30 31 30 29 28 31 32 29 31 31 30 28 30 31 34 35 34 34 33 30 28 30 28 29 30 30 32 32 31 33 34 31 30 30
15 15 18 26 25 22 22 25 26 27 28 28 28 31 31 31 32 32 30 30 30 30 31 29 30 32 33 35 34 34 32 30 26 26 28 28 29 33 32 31 30 30 30 30 30
15 15 19 26 25 23 22 23 26 28 27 26 30 31 31 32 32 31 31 31 30 30 28 30 29 32 33 34 36 35 32 32 27 30 31 28 30 29 29 30 30 29 28 28 29
15 18 23 25 26 20 22 23 28 28 30 28 28 31 31 31 31 30 29 31 29 30 29 30 28 31 32 33 34 33 33 26 25 25 27 27 28 29 27 29 28 27 26 26 27
14 21 23 23 22 18 21 24 27 31 28 30 29 31 30 31 29 30 29 30 30 31 30 29 28 30 31 33 34 33 34 28 28 30 23 25 27 29 26 27 27 26 26 26 26
17 17 22 23 22 24 24 27 28 30 28 29 30 33 29 29 28 28 29 31 32 31 30 30 29 28 32 32 33 34 34 26 24 24 27 27 27 30 26 26 26 26 26 25 25
16 21 20 19 18 25 27 26 27 31 32 31 31 30 29 29 26 28 27 31 33 31 27 28 27 30 30 32 32 34 34 32 29 27 26 25 28 30 28 27 26 26 26 25 23
15 21 21 21 22 24 27 27 27 29 31 31 31 31 30 28 27 27 29 31 32 29 30 30 29 29 30 29 33 34 33 33 34 29 31 27 27 27 27 26 27 27 25 24 23
19 20 19 20 22 24 21 24 27 29 30 30 31 31 29 28 29 29 29 30 32 30 29 27 30 30 33 32 34 31 30 29 28 27 26 25 28 28 27 25 25 24 24 23 23
18 19 19 20 21 23 23 24 28 28 29 30 32 31 30 31 29 30 29 28 30 31 29 28 28 28 31 29 31 29 28 29 28 27 27 27 27 27 27 26 25 23 23 23 23
Height
791 790 789 787 785 783 781 780 779 777 776 775 774 772 768 764 759 756 753 749 748 749 751 750 749 749 752 756 755 756 785 785 771 771 761 746 755 750 747 756 756 757 760 764 774
790 789 788 786 784 782 781 780 778 776 775 775 773 771 767 762 757 752 745 745 748 750 750 749 749 748 756 758 759 770 788 776 754 750 754 747 749 753 760 762 765 764 762 769 778
789 788 786 784 783 782 780 779 777 775 774 774 772 770 766 762 759 747 744 745 747 749 750 751 750 751 763 762 766 771 783 764 750 744 739 747 751 748 762 772 762 765 768 772 778
788 787 785 783 782 780 779 778 776 774 774 773 772 769 766 763 777 745 746 746 746 748 749 750 752 763 770 774 766 777 763 764 755 743 739 744 743 756 755 756 753 757 764 772 778
787 785 783 781 780 779 778 777 775 774 773 773 771 768 766 767 756 746 746 746 748 748 749 750 756 762 771 773 770 776 768 766 756 745 738 735 748 754 759 753 757 762 768 774 779
786 783 782 780 778 777 776 775 774 773 772 772 771 768 768 774 746 745 746 747 747 750 751 751 754 751 764 770 775 770 769 764 757 751 742 750 754 751 762 755 762 766 770 772 776
784 782 780 778 777 776 774 773 772 771 771 771 770 768 769 759 746 745 746 747 747 749 752 751 749 750 756 768 762 765 776 764 757 751 756 748 769 769 758 760 765 769 770 771 771
783 780 778 776 775 774 772 771 770 769 770 770 769 769 766 747 746 744 745 747 745 749 752 754 753 759 762 765 772 780 786 801 761 752 754 756 791 768 762 764 769 769 770 769 769
781 778 776 774 773 772 770 769 768 767 767 769 769 768 763 745 744 739 743 746 745 749 756 755 756 766 768 785 796 796 809 800 778 751 755 760 784 766 763 766 770 768 768 766 766
779 776 774 772 771 770 768 766 765 766 766 768 769 774 750 742 736 737 741 749 749 749 756 761 772 781 782 792 814 803 804 790 786 760 756 768 775 767 764 765 767 767 766 766 764
777 774 772 770 770 768 766 765 768 770 766 760 757 755 744 736 735 736 740 745 751 760 778 773 788 797 769 774 771 778 785 788 772 757 763 769 769 769 764 766 768 767 765 763 761
775 772 770 769 768 768 766 766 765 768 771 748 747 747 739 742 747 735 737 750 759 781 779 783 791 773 758 763 772 777 783 783 765 750 762 772 772 763 766 760 758 757 760 758 758
773 770 768 767 766 766 767 764 764 764 774 751 742 741 737 740 746 739 736 747 762 777 780 781 767 758 767 770 775 774 781 772 780 758 760 770 781 769 759 756 753 752 751 751 753
771 768 767 766 769 766 763 761 761 761 790 763 746 733 730 735 747 725 732 743 760 769 774 774 759 763 766 769 764 789 751 755 763 778 801 770 817 780 764 765 755 749 750 747 746
768 766 765 766 766 765 762 759 758 761 815 744 738 718 721 741 732 733 729 738 763 762 764 765 759 760 764 753 747 762 738 752 759 783 787 786 807 785 765 768 758 748 740 739 738
766 763 763 764 764 758 758 755 758 797 810 750 731 736 740 734 731 730 734 730 735 753 754 753 732 741 744 731 734 727 748 769 779 792 818 793 798 791 778 760 750 741 735 732 732
762 760 761 762 759 756 756 756 795 817 756 754 746 743 745 748 742 739 749 752 763 776 777 758 748 733 727 741 731 743 773 815 813 819 821 794 800 778 748 742 735 735 732 727 727
758 757 757 757 756 757 754 772 805 776 775 744 740 745 760 758 752 745 759 765 752 763 785 788 787 740 725 736 748 753 766 807 823 832 815 785 800 772 737 728 725 723 725 724 727
756 755 754 751 753 758 763 796 786 774 761 761 751 755 758 753 751 746 757 762 756 755 776 788 779 733 727 721 729 749 769 758 803 807 813 804 780 746 736 736 735 734 728 727 724
756 755 751 748 752 756 774 792 771 755 754 760 766 752 764 752 755 758 759 750 754 749 754 764 788 742 731 719 719 730 738 775 793 817 815 812 794 792 771 758 744 742 739 734 729
756 759 747 748 752 762 789 785 761 746 741 758 762 757 753 756 748 758 763 748 746 749 748 757 775 760 740 743 747 746 753 775 787 802 822 830 812 767 770 758 754 750 743 742 739
757 764 748 750 769 777 784 769 755 749 743 747 745 743 749 748 760 757 760 746 732 736 760 753 769 777 759 727 724 734 742 764 795 795 817 817 810 760 766 758 749 751 748 746 741
760 761 753 754 779 773 765 760 753 750 754 748 746 731 740 754 769 752 748 726 726 732 751 745 769 792 765 748 731 741 738 761 777 788 803 814 810 759 766 765 757 756 755 754 751
760 769 763 759 762 760 760 760 762 740 744 748 737 738 745 751 752 754 753 728 716 725 734 744 767 771 790 767 752 750 743 746 762 794 802 802 790 771 770 769 763 761 759 759 756
760 762 757 773 764 762 758 761 765 765 740 734 742 738 742 758 760 760 746 733 725 729 739 747 770 764 758 755 744 748 750 745 749 763 771 781 786 775 770 767 762 762 761 761 761
759 759 755 760 754 757 767 771 761 752 745 742 742 730 731 747 741 746 743 742 735 733 743 747 763 758 756 748 742 760 758 755 759 768 774 780 779 763 764 765 766 763 760 761 762
755 753 756 757 757 760 762 759 746 744 734 729 728 732 737 724 716 709 721 726 726 732 743 750 759 772 775 762 757 780 772 764 764 764 770 784 772 766 770 765 762 764 762 763 763
Wind_Speed
14 14 12 14 13 12 9 8 8 8 10 11 12 15 17 20 23 15 6 6 3 2 4 6 10 3 5 2 0 4 3 2 3 2 2 7 5 5 4 11 3 5 7 14 30
14 15 13 14 13 12 10 9 9 8 10 11 12 15 17 22 20 10 5 5 7 2 5 4 5 6 3 4 3 5 3 3 3 5 5 4 9 8 4 5 3 10 17 31 29
14 14 14 14 12 11 10 10 9 8 10 11 12 14 17 17 4 5 5 5 5 2 5 4 4 4 5 3 5 3 3 6 7 11 7 8 7 4 12 2 6 20 21 22 26
16 14 14 14 12 11 11 10 9 8 9 10 12 13 16 6 1 2 2 7 5 2 4 2 3 3 3 3 3 4 2 5 12 14 6 8 6 6 1 3 11 18 21 19 20
16 15 14 13 13 11 11 11 10 8 8 9 10 12 5 3 7 3 5 7 8 7 8 4 3 4 5 3 3 1 6 9 18 19 2 7 5 6 4 11 13 16 14 18 18
17 15 14 13 13 12 11 12 10 8 7 8 9 9 3 4 5 4 8 11 9 8 8 2 1 5 7 3 2 2 9 12 10 14 5 8 4 6 4 13 14 14 12 9 16
17 16 14 14 13 12 12 12 10 8 7 6 6 5 0 11 3 5 11 10 9 6 2 7 8 6 2 3 7 5 9 15 3 2 3 9 5 1 12 13 15 14 13 11 10
19 17 15 13 13 13 12 12 10 7 6 5 4 2 6 3 5 11 14 10 12 8 4 4 14 5 2 5 3 5 4 5 5 1 4 5 3 3 9 14 14 15 13 16 14
18 17 15 13 13 13 13 12 8 5 5 2 0 2 9 8 7 15 21 7 11 5 13 12 9 2 2 4 3 1 3 5 7 7 2 2 4 5 9 12 13 14 13 14 13
18 17 14 12 13 13 13 10 5 4 2 2 1 3 7 4 5 10 23 6 4 5 4 6 3 2 1 2 4 5 4 5 5 2 4 3 3 7 10 12 13 13 11 9 12
18 17 14 12 12 12 11 2 2 1 3 8 6 4 5 5 3 8 12 9 4 6 3 2 4 7 13 8 2 3 4 6 5 8 1 5 3 12 11 7 10 9 9 9 12
18 16 13 11 10 10 9 1 2 3 6 11 10 8 15 3 5 3 12 6 4 4 1 2 4 13 10 8 10 8 6 7 11 12 6 4 4 3 8 11 14 14 11 13 7
18 16 13 8 9 7 2 5 5 18 1 7 6 6 6 11 8 7 8 4 4 7 7 5 3 7 9 8 11 11 7 8 5 3 4 5 4 5 4 6 7 8 10 12 12
17 14 10 6 5 2 4 3 15 8 4 7 5 8 5 6 5 8 8 5 1 6 6 5 3 7 7 9 10 3 8 12 5 3 4 3 3 5 6 7 7 11 10 14 13
16 13 8 4 4 3 3 17 2 3 1 2 4 2 5 10 5 5 5 4 6 6 5 5 6 7 7 5 8 9 2 9 3 5 4 0 3 7 3 7 10 11 15 17 15
14 11 5 4 8 9 13 9 6 6 4 4 6 6 6 2 3 3 3 3 3 4 3 6 2 3 7 5 9 5 6 4 4 4 2 5 5 5 5 10 6 6 14 16 16
13 9 6 9 4 2 16 3 4 3 5 6 3 4 3 2 4 3 5 4 4 2 4 7 4 4 4 3 3 5 6 3 3 3 5 2 4 9 4 8 10 12 13 16 14
11 8 8 19 8 10 9 5 3 4 5 5 4 4 6 3 4 3 4 4 2 4 1 2 7 2 3 5 5 5 7 6 6 4 3 2 4 5 6 6 1 5 9 8 10
4 3 6 12 16 10 4 3 6 5 3 5 7 4 5 7 4 2 6 5 3 4 5 2 6 5 6 4 7 3 3 4 7 2 3 2 6 6 6 8 8 7 6 6 10
0 2 7 7 11 6 4 5 4 4 4 2 2 2 2 5 7 6 4 2 3 2 5 3 4 2 7 3 1 4 6 1 3 4 2 4 4 4 9 6 7 9 8 8 8
1 2 3 16 13 5 4 6 4 4 2 4 4 2 1 4 3 1 5 2 2 2 2 3 2 7 2 2 2 4 2 7 6 4 5 2 5 4 9 6 8 5 7 7 7
1 2 3 24 3 0 3 6 3 2 6 4 3 6 6 5 2 3 3 3 9 9 4 6 4 2 8 7 2 2 2 3 5 2 2 4 4 6 7 5 9 8 8 6 7
2 1 12 6 3 2 4 4 3 2 2 6 6 1 6 2 3 4 4 7 8 6 6 4 0 3 6 6 5 4 2 5 6 3 2 5 4 2 7 6 6 8 6 5 3
2 3 3 3 1 5 2 4 1 3 5 4 22 3 1 1 4 5 2 3 9 4 7 5 1 5 5 5 3 3 5 3 6 4 4 5 6 2 2 5 6 6 5 5 7
1 2 3 4 5 4 3 3 4 3 5 11 8 7 8 5 3 5 2 4 1 9 4 6 4 4 7 7 3 2 1 2 2 5 6 7 8 5 4 4 3 2 5 8 7
2 2 3 2 2 5 9 6 8 5 2 6 4 7 5 8 9 10 8 5 6 5 9 3 3 5 3 5 3 6 8 7 6 6 6 8 4 4 3 3 4 6 8 8 8
2 2 3 3 1 4 6 8 7 6 8 9 5 2 5 6 12 6 7 3 4 7 7 7 5 3 4 4 3 6 6 3 5 6 6 6 4 5 2 7 7 6 8 8 6
Wind_Direction
331 336 336 336 336 336 334 324 319 321 321 323 330 328 325 322 318 314 258 233 167 317 350 13 31 304 119 106 195 160 51 333 3 353 163 142 136 152 102 137 186 190 149 158 157
329 331 332 333 332 337 332 325 318 324 321 327 332 329 326 324 321 278 286 225 208 315 57 62 357 42 72 15 25 51 72 283 285 285 198 161 130 138 118 146 37 93 107 141 150
328 327 326 328 329 334 328 324 317 325 321 331 332 332 327 327 311 261 356 164 206 166 103 70 68 43 57 354 11 334 203 329 318 332 187 148 145 93 130 252 218 146 144 153 155
330 327 324 323 326 327 326 320 317 324 323 331 334 334 328 346 231 319 68 156 169 141 92 135 102 69 84 73 325 356 327 335 323 316 214 147 120 121 213 204 148 148 145 153 161
327 324 324 322 321 322 323 317 318 321 323 331 335 340 340 343 254 283 177 164 155 123 119 119 92 162 103 76 305 147 328 342 326 306 355 113 121 133 99 114 137 145 154 152 169
326 324 324 320 317 314 319 313 315 315 319 331 335 347 10 308 302 281 186 173 188 158 189 122 195 160 108 133 215 170 292 316 313 308 8 101 85 94 147 130 142 150 168 175 170
325 322 321 317 314 307 314 312 314 309 316 328 335 356 265 241 282 246 193 191 195 171 112 191 158 29 91 63 328 9 353 336 290 247 160 117 15 107 149 148 153 166 178 192 207
324 320 316 314 310 306 311 309 308 301 307 316 316 36 253 258 265 256 207 215 209 213 163 171 141 84 33 98 53 18 45 331 287 7 224 106 208 128 163 160 171 181 190 196 210
323 318 312 313 307 306 312 308 299 291 287 283 97 111 268 299 240 225 210 194 232 205 87 84 133 120 327 111 52 38 254 232 302 192 143 101 139 204 173 182 183 195 198 207 210
322 317 309 309 307 310 321 302 277 285 105 132 246 336 273 247 207 200 213 210 83 63 51 55 65 103 169 119 193 193 235 261 250 285 158 140 135 168 183 188 198 203 207 214 210
322 316 306 305 310 314 329 310 18 324 197 204 184 252 272 298 186 192 175 121 104 53 85 31 120 140 238 190 287 207 217 257 240 248 139 217 125 191 195 201 204 216 216 215 219
320 315 303 309 306 305 309 304 98 75 308 235 244 265 266 326 320 212 159 148 114 112 27 88 196 213 229 256 244 253 263 268 281 232 157 158 242 146 180 215 207 211 215 224 222
319 314 303 314 299 302 298 259 184 329 222 289 190 213 207 153 214 248 136 119 125 144 204 176 212 161 201 248 257 255 231 258 211 73 58 111 328 252 196 212 204 223 215 223 209
318 313 303 306 291 298 246 7 326 190 49 273 228 261 163 129 268 176 155 132 64 171 173 216 199 193 219 237 203 265 232 238 163 124 183 72 254 264 222 228 221 220 213 222 217
314 307 300 232 291 230 131 324 2 147 348 176 202 143 144 155 193 188 169 68 170 183 143 255 186 188 232 215 166 226 77 172 154 93 114 119 64 266 161 230 234 225 222 219 222
309 299 288 258 248 259 319 340 129 41 261 311 162 167 123 187 267 90 140 99 151 156 230 238 229 220 214 225 191 266 108 65 87 90 26 230 150 276 188 213 240 220 226 226 221
304 286 234 203 238 217 338 109 49 134 317 307 227 157 71 148 252 151 164 215 189 98 356 331 270 275 190 309 47 97 65 353 4 16 222 255 144 242 248 232 210 212 222 226 225
303 278 250 237 234 283 342 59 159 229 241 306 340 88 150 188 267 208 130 211 167 100 107 264 321 217 148 190 194 199 154 158 201 196 263 49 232 253 253 257 143 230 231 210 206
311 277 254 249 229 248 74 102 214 205 239 323 327 126 204 189 144 288 187 208 193 153 188 137 276 291 228 229 147 186 185 174 108 41 85 240 302 321 34 45 48 12 50 201 194
38 292 251 204 166 145 81 228 241 190 187 138 352 88 276 168 152 165 172 116 179 180 127 227 298 286 292 324 237 183 153 77 23 131 196 316 299 268 356 339 37 23 11 360 4
56 30 301 161 146 52 159 231 289 282 68 147 240 249 124 308 78 121 194 139 189 91 146 161 141 286 323 50 208 348 71 59 110 108 146 126 286 275 273 199 111 49 31 21 26
88 26 166 154 79 93 178 192 304 211 5 331 288 235 160 185 128 188 241 246 168 153 210 207 174 302 253 276 232 209 156 106 114 228 80 127 289 349 355 352 98 72 44 21 28
101 251 170 327 144 212 238 224 211 252 32 345 259 214 62 133 231 185 193 238 221 138 176 193 47 325 345 356 8 64 70 100 108 92 174 122 239 38 11 47 46 87 65 45 60
92 88 325 44 224 148 167 281 233 256 214 102 280 83 173 1 58 233 263 284 203 101 76 85 159 165 196 220 215 27 353 98 113 101 176 194 160 226 324 108 69 59 67 58 43
70 242 197 211 282 199 79 9 334 345 234 211 238 226 184 165 126 247 240 302 238 169 179 179 254 178 229 241 180 107 291 272 146 157 154 186 148 195 190 123 81 54 69 75 59
119 69 358 234 286 180 143 212 215 243 225 275 274 209 150 168 191 206 158 220 229 87 166 203 249 172 291 317 83 62 17 75 50 94 58 105 119 144 109 184 102 75 92 75 61
323 309 119 274 13 135 201 197 230 155 244 213 257 180 199 238 202 218 93 113 160 173 186 163 146 122 236 338 69 13 329 352 61 41 125 152 200 124 117 62 54 83 89 91 91